• în România
  • Lista ţărilor
  • Pe 7 zile
  • Temperatura apei
  • Hartă satelitară
  • Meteo pe hartă
  • Widget-uri
  • user-avatar
    Intrare

    Meteo pe oră la Kitzbuhel

    Astăzi, 19 Octombrie, Vineri

    Timp Temperatura Precipitaţii Vânt Presiune Umiditate
    00:00 +9°C° 0 mm 1 m/s 679 mmHg 96%
    01:00 +9°C° 0 mm 1 m/s 679 mmHg 97%
    02:00 +9°C° 0 mm 1 m/s 679 mmHg 96%
    03:00 +8°C° 0 mm 1 m/s 678 mmHg 96%
    04:00 +8°C° 0 mm 1 m/s 678 mmHg 96%
    05:00 +8°C° 0 mm 1 m/s 678 mmHg 96%
    06:00 +8°C° 0 mm 1 m/s 679 mmHg 95%
    07:00 +8°C° 0 mm 1 m/s 679 mmHg 95%
    08:00 +10°C° 0 mm 1 m/s 679 mmHg 85%
    09:00 +12°C° 0 mm 1 m/s 680 mmHg 76%
    10:00 +15°C° 0 mm 1 m/s 680 mmHg 67%
    11:00 +16°C° 0 mm 1 m/s 680 mmHg 62%
    12:00 +18°C° 0 mm 1 m/s 680 mmHg 58%
    13:00 +18°C° 0 mm 1 m/s 681 mmHg 53%
    14:00 +18°C° 0 mm 1 m/s 680 mmHg 59%
    15:00 +16°C° 0 mm 1 m/s 680 mmHg 64%
    16:00 +15°C° 0 mm 1 m/s 680 mmHg 70%
    17:00 +13°C° 0 mm 1 m/s 680 mmHg 78%
    18:00 +11°C° 0 mm 1 m/s 680 mmHg 86%
    19:00 +9°C° 0 mm 1 m/s 680 mmHg 94%
    20:00 +9°C° 0 mm 1 m/s 680 mmHg 94%
    21:00 +8°C° 0 mm 1 m/s 680 mmHg 94%
    22:00 +8°C° 0 mm 1 m/s 680 mmHg 94%
    23:00 +8°C° 0 mm 1 m/s 680 mmHg 94%

    Mâine, 20 Octombrie, Sâmbătă

    Timp Temperatura Precipitaţii Vânt Presiune Umiditate
    00:00 +8°C° 0 mm 1 m/s 681 mmHg 93%
    01:00 +7°C° 0 mm 1 m/s 681 mmHg 93%
    02:00 +7°C° 0 mm 1 m/s 681 mmHg 92%
    03:00 +7°C° 0 mm 1 m/s 681 mmHg 91%
    04:00 +7°C° 0 mm 1 m/s 681 mmHg 90%
    05:00 +7°C° 0 mm 1 m/s 681 mmHg 88%
    06:00 +7°C° 0 mm 1 m/s 682 mmHg 86%
    07:00 +7°C° 0 mm 1 m/s 682 mmHg 85%
    08:00 +9°C° 0 mm 1 m/s 682 mmHg 76%
    09:00 +12°C° 0 mm 1 m/s 683 mmHg 66%
    10:00 +14°C° 0 mm 1 m/s 684 mmHg 57%
    11:00 +15°C° 0 mm 1 m/s 684 mmHg 55%
    12:00 +15°C° 0 mm 1 m/s 684 mmHg 54%
    13:00 +16°C° 0 mm 2 m/s 684 mmHg 52%
    14:00 +15°C° 0 mm 2 m/s 684 mmHg 58%
    15:00 +14°C° 0 mm 2 m/s 684 mmHg 64%
    16:00 +14°C° 0 mm 2 m/s 683 mmHg 70%
    17:00 +12°C° 0 mm 2 m/s 683 mmHg 78%
    18:00 +10°C° 0 mm 1 m/s 683 mmHg 87%
    19:00 +8°C° 0 mm 1 m/s 683 mmHg 95%
    20:00 +8°C° 0 mm 1 m/s 683 mmHg 94%
    21:00 +8°C° 0 mm 1 m/s 683 mmHg 93%
    22:00 +8°C° 0 mm 1 m/s 684 mmHg 92%
    23:00 +7°C° 0 mm 1 m/s 683 mmHg 90%

    Poimâine, 21 Octombrie, Duminică

    Timp Temperatura Precipitaţii Vânt Presiune Umiditate
    00:00 +7°C° 0 mm 1 m/s 683 mmHg 89%
    01:00 +6°C° 0 mm 1 m/s 683 mmHg 87%
    02:00 +6°C° 0 mm 1 m/s 683 mmHg 85%
    03:00 +6°C° 0 mm 1 m/s 683 mmHg 82%
    04:00 +6°C° 0 mm 1 m/s 683 mmHg 80%
    05:00 +6°C° 0 mm 1 m/s 683 mmHg 80%
    06:00 +6°C° 0 mm 1 m/s 683 mmHg 79%
    07:00 +6°C° 0 mm 1 m/s 683 mmHg 79%
    08:00 +8°C° 0 mm 1 m/s 683 mmHg 69%
    09:00 +11°C° 0 mm 1 m/s 683 mmHg 60%
    10:00 +13°C° 0 mm 1 m/s 684 mmHg 51%
    11:00 +14°C° 0 mm 1 m/s 683 mmHg 48%
    12:00 +15°C° 0 mm 2 m/s 683 mmHg 46%
    13:00 +16°C° 0 mm 2 m/s 683 mmHg 43%
    14:00 +15°C° 0 mm 2 m/s 682 mmHg 49%
    15:00 +14°C° 0 mm 2 m/s 682 mmHg 56%
    16:00 +13°C° 0 mm 2 m/s 681 mmHg 62%
    17:00 +10°C° 0 mm 2 m/s 681 mmHg 70%
    18:00 +9°C° 0 mm 1 m/s 681 mmHg 78%
    19:00 +7°C° 0 mm 1 m/s 681 mmHg 87%
    20:00 +7°C° 0 mm 1 m/s 681 mmHg 85%
    21:00 +7°C° 0 mm 1 m/s 681 mmHg 84%
    22:00 +6°C° 0 mm 1 m/s 681 mmHg 83%
    23:00 +7°C° 0 mm 1 m/s 681 mmHg 79%

    22 Octombrie, Luni

    Timp Temperatura Precipitaţii Vânt Presiune Umiditate
    00:00 +8°C° 0 mm 1 m/s 681 mmHg 75%
    01:00 +8°C° 0 mm 1 m/s 681 mmHg 70%
    02:00 +8°C° 0 mm 1 m/s 681 mmHg 71%
    03:00 +8°C° 0 mm 1 m/s 681 mmHg 71%
    04:00 +8°C° 0 mm 1 m/s 680 mmHg 71%
    05:00 +8°C° 0 mm 1 m/s 680 mmHg 73%
    06:00 +7°C° 0 mm 1 m/s 681 mmHg 76%
    07:00 +7°C° 0 mm 1 m/s 681 mmHg 78%
    08:00 +8°C° 0.1 mm 1 m/s 681 mmHg 75%
    09:00 +8°C° 0.1 mm 1 m/s 681 mmHg 73%
    10:00 +9°C° 0.1 mm 1 m/s 681 mmHg 70%
    11:00 +10°C° 0 mm 1 m/s 681 mmHg 67%
    12:00 +9°C° 0 mm 2 m/s 681 mmHg 64%
    13:00 +10°C° 0 mm 2 m/s 681 mmHg 62%
    14:00 +10°C° 0 mm 2 m/s 680 mmHg 64%
    15:00 +9°C° 0 mm 2 m/s 680 mmHg 67%
    16:00 +9°C° 0 mm 2 m/s 680 mmHg 70%
    17:00 +8°C° 0.1 mm 2 m/s 680 mmHg 76%
    18:00 +8°C° 0.1 mm 1 m/s 681 mmHg 83%
    19:00 +7°C° 0.1 mm 1 m/s 681 mmHg 89%
    20:00 +6°C° 0.2 mm 1 m/s 681 mmHg 91%
    21:00 +5°C° 0.2 mm 2 m/s 681 mmHg 92%
    22:00 +5°C° 0.2 mm 2 m/s 682 mmHg 94%
    23:00 +5°C° 0.7 mm 2 m/s 682 mmHg 94%

    23 Octombrie, Marţi

    Timp Temperatura Precipitaţii Vânt Presiune Umiditate
    00:00 +5°C° 0.7 mm 2 m/s 682 mmHg 94%
    01:00 +5°C° 0.7 mm 2 m/s 681 mmHg 95%
    02:00 +5°C° 0.6 mm 2 m/s 681 mmHg 95%
    03:00 +5°C° 0.6 mm 2 m/s 681 mmHg 96%
    04:00 +4°C° 0.6 mm 2 m/s 681 mmHg 96%
    05:00 +4°C° 0.5 mm 2 m/s 681 mmHg 96%
    06:00 +3°C° 0.5 mm 2 m/s 681 mmHg 96%
    07:00 +3°C° 0.5 mm 2 m/s 681 mmHg 96%
    08:00 +3°C° 0.3 mm 2 m/s 681 mmHg 94%
    09:00 +3°C° 0.3 mm 2 m/s 681 mmHg 92%
    10:00 +3°C° 0.3 mm 2 m/s 682 mmHg 90%
    11:00 +4°C° 0.1 mm 2 m/s 681 mmHg 85%
    12:00 +3°C° 0.1 mm 3 m/s 681 mmHg 80%
    13:00 +4°C° 0.1 mm 3 m/s 681 mmHg 76%
    14:00 +5°C° 0 mm 2 m/s 681 mmHg 75%
    15:00 +4°C° 0 mm 2 m/s 681 mmHg 75%
    16:00 +4°C° 0 mm 2 m/s 681 mmHg 75%
    17:00 +3°C° 0.3 mm 2 m/s 681 mmHg 79%
    18:00 +3°C° 0.3 mm 2 m/s 681 mmHg 84%
    19:00 +2°C° 0.3 mm 2 m/s 681 mmHg 89%
    20:00 +2°C° 0.8 mm 2 m/s 681 mmHg 89%
    21:00 +2°C° 0.8 mm 2 m/s 681 mmHg 90%
    22:00 +2°C° 0.8 mm 2 m/s 681 mmHg 91%
    23:00 +2°C° 1.2 mm 2 m/s 681 mmHg 91%

    24 Octombrie, Miercuri

    Timp Temperatura Precipitaţii Vânt Presiune Umiditate
    00:00 +2°C° 1.2 mm 2 m/s 681 mmHg 92%
    01:00 +2°C° 1.2 mm 2 m/s 680 mmHg 93%
    02:00 +3°C° 1.3 mm 2 m/s 680 mmHg 93%
    03:00 +2°C° 1.3 mm 3 m/s 680 mmHg 93%
    04:00 +2°C° 1.3 mm 3 m/s 680 mmHg 94%
    05:00 +2°C° 1.6 mm 3 m/s 680 mmHg 94%
    06:00 +2°C° 1.6 mm 3 m/s 680 mmHg 94%
    07:00 +2°C° 1.6 mm 3 m/s 679 mmHg 94%
    08:00 +3°C° 1.9 mm 3 m/s 679 mmHg 94%
    09:00 +3°C° 1.9 mm 3 m/s 679 mmHg 94%
    10:00 +4°C° 1.9 mm 3 m/s 679 mmHg 94%
    11:00 +4°C° 1.9 mm 3 m/s 679 mmHg 94%
    12:00 +4°C° 1.9 mm 3 m/s 679 mmHg 95%
    13:00 +5°C° 1.9 mm 3 m/s 678 mmHg 95%
    14:00 +5°C° 1.9 mm 3 m/s 678 mmHg 95%
    15:00 +5°C° 1.9 mm 3 m/s 678 mmHg 96%
    16:00 +5°C° 1.9 mm 3 m/s 678 mmHg 97%
    17:00 +5°C° 1.7 mm 3 m/s 678 mmHg 97%
    18:00 +5°C° 1.7 mm 3 m/s 678 mmHg 97%
    19:00 +5°C° 1.7 mm 3 m/s 679 mmHg 97%
    20:00 +5°C° 1.4 mm 3 m/s 679 mmHg 97%
    21:00 +5°C° 1.4 mm 3 m/s 679 mmHg 97%
    22:00 +5°C° 1.4 mm 3 m/s 679 mmHg 98%
    23:00 +5°C° 1.1 mm 3 m/s 679 mmHg 98%
    Arată mai mult